User: anonymous   Login
Location: Unspecified
(0.0000°N, 0.0000°E)
Time: 03:35:01
(UTC+00:00)
Language:

OPTUS D2 - Orbit

View from above orbital plane
View from above orbital plane
View from above satellite
View from above satellite

Ground track
Ground track

The orbit data is extracted from the following two-line orbital elements,

1 32252U 07044A   16125.59874251 -.00000198  00000-0  00000+0 0  9993
2 32252   0.0289 317.5577 0003017  92.5390 180.3267  1.00268821 31389
Epoch (UTC): 04 May 2016 14:22:11
Eccentricity: 0.0003017
inclination: 0.0289°
perigee height: 35774 km
apogee height: 35800 km
right ascension of ascending node: 317.5577°
argument of perigee: 92.5390°
revolutions per day: 1.00268821
mean anomaly at epoch: 180.3267°
orbit number at epoch: 3138

The dashed part of the orbit path shows where the satellite is in the earth's shadow,  

DLR